Theta_e
312 313 312 313 314 317 318 319 319 319 320 320 320 321 321 321 321 321 321 320 319 320 322 326 336 345 345 338 346 341 343 339 333 347 344 341 349 349 344 343 337 334 331 331
314 313 313 313 314 315 318 319 320 319 320 319 321 321 321 322 322 322 322 321 321 321 324 326 324 324 333 341 343 339 341 336 331 330 330 330 335 344 346 343 340 337 336 338
316 316 315 315 317 318 318 319 319 319 320 320 320 321 321 322 321 321 322 321 322 322 325 326 325 325 329 329 333 344 349 338 331 331 330 329 324 329 339 345 341 336 335 337
317 318 317 317 318 318 319 319 319 319 320 321 320 321 322 321 321 321 321 323 323 323 324 326 326 326 326 325 324 327 338 328 332 337 337 328 326 325 332 341 341 337 338 339
317 317 318 318 318 318 319 319 320 320 321 321 321 321 321 321 321 322 322 322 324 325 324 324 323 324 324 324 323 320 323 327 340 339 341 338 341 345 345 342 342 339 340 341
317 317 318 317 317 319 319 319 320 320 320 321 321 321 321 321 321 322 323 325 325 325 325 325 323 323 322 323 321 320 322 321 320 325 331 344 342 345 348 344 342 341 342 339
318 318 318 319 319 320 319 321 321 321 320 320 320 320 321 322 322 324 326 325 326 327 327 327 327 326 323 323 326 323 326 319 319 322 325 335 346 345 346 343 342 341 338 336
319 319 319 319 319 319 320 321 321 321 321 321 320 319 320 322 325 324 324 326 326 327 328 329 328 327 326 324 322 332 335 342 335 341 338 341 345 346 344 342 338 338 331 324
321 320 319 319 319 320 320 321 321 322 321 321 321 321 322 324 325 325 325 326 327 327 328 329 330 328 327 328 332 336 340 344 346 346 345 344 343 343 340 334 325 323 323 328
322 323 321 322 322 321 320 322 322 322 323 323 321 321 321 324 324 325 326 325 325 325 326 327 329 331 331 333 335 337 338 340 340 339 339 337 330 325 322 320 319 329 326 323
321 322 322 322 322 322 322 323 323 325 324 325 324 323 325 325 325 325 325 324 323 323 323 323 324 327 329 330 331 331 330 329 329 329 329 330 330 330 329 329 329 330 326 320
324 323 326 323 323 322 323 324 325 329 326 325 325 326 326 326 325 324 324 323 323 323 323 322 321 321 322 324 325 326 328 327 328 328 329 330 329 329 329 329 329 328 327 327
324 326 328 327 325 324 323 324 324 326 327 328 329 327 326 326 325 324 324 324 324 324 323 324 323 322 322 322 322 322 322 322 323 324 325 326 326 326 325 325 325 325 325 325
320 325 326 327 325 325 326 324 324 325 331 328 326 325 325 324 323 323 323 324 324 323 321 322 323 323 322 320 320 320 319 318 318 319 320 321 318 317 317 317 317 318 320 320
322 324 323 322 321 320 321 322 322 323 323 324 322 320 319 318 318 316 316 316 317 318 319 320 320 322 320 320 318 316 315 315 315 315 316 315 315 315 315 315 315 316 316 317
319 322 320 321 318 317 318 318 318 319 318 318 317 317 316 315 317 318 318 317 317 317 317 318 318 317 316 314 314 313 313 312 311 312 312 312 312 311 311 311 311 310 310 311
317 317 317 314 314 314 314 314 314 315 315 314 315 318 319 318 318 316 316 317 317 316 315 314 314 313 313 312 311 310 310 309 309 310 310 309 309 309 309 309 309 309 310 310
316 315 315 314 315 316 316 315 316 318 317 318 319 318 317 316 315 314 313 314 313 313 313 312 312 311 311 310 309 308 308 308 308 308 308 308 308 307 307 307 307 307 307 307
313 314 317 318 317 316 315 318 318 319 319 319 319 318 317 316 315 314 312 310 311 310 310 310 309 309 309 308 308 307 307 307 307 306 306 305 305 304 304 304 305 306 306 306
313 315 316 316 316 317 319 317 316 317 320 318 316 316 316 315 317 315 311 310 310 309 309 308 308 307 307 307 306 306 306 305 305 304 304 303 303 304 304 305 305 305 305 305
315 315 317 316 316 316 316 316 315 319 320 316 315 315 314 315 313 311 310 310 310 309 308 307 307 307 306 306 304 304 304 303 303 303 302 302 303 303 303 303 303 304 304 303
316 317 317 317 318 316 315 315 317 318 316 315 314 314 313 312 310 309 309 309 308 308 307 306 305 305 304 303 302 302 302 302 302 301 301 301 302 302 302 302 301 301 301 302
317 316 317 316 316 316 315 315 315 315 314 314 313 312 311 310 310 309 307 307 306 305 304 303 303 302 302 301 301 301 301 300 300 300 300 301 301 301 299 298 301 302 300 300
313 314 315 315 315 315 314 314 314 314 313 312 310 309 308 307 306 305 305 304 304 303 302 301 301 301 301 301 300 299 299 299 298 298 298 298 299 301 301 299 298 299 300 300
312 313 313 313 313 312 312 311 310 310 308 307 306 305 305 304 304 303 303 302 302 301 301 300 300 299 299 299 298 298 297 296 295 295 298 299 299 299 300 300 301 301 302 301
310 311 312 313 313 312 312 310 307 307 306 305 304 303 302 301 302 302 301 301 299 298 297 297 297 297 297 296 296 295 293 296 296 297 298 298 298 299 300 301 302 303 304 304
Wind_Speed
19 12 16 19 17 15 4 8 10 11 8 10 14 12 14 14 10 14 18 17 18 21 19 12 13 15 17 17 19 29 22 17 13 22 15 15 20 19 23 24 24 22 27 21
10 16 14 10 13 13 11 11 12 12 6 5 9 14 14 10 8 7 11 12 13 19 23 12 7 14 13 19 30 32 28 35 19 23 18 15 13 19 25 25 25 10 24 16
12 2 13 14 13 12 12 13 12 13 11 13 15 16 14 7 7 3 6 5 6 14 24 19 12 10 25 20 19 25 35 34 34 27 26 31 19 34 36 30 30 24 28 24
14 11 11 17 15 13 13 12 13 14 13 11 5 11 4 1 6 5 0 4 4 7 18 21 20 20 14 24 33 32 28 38 38 39 35 42 38 42 40 28 32 29 23 22
12 12 17 14 16 13 13 8 10 13 13 14 15 9 11 2 11 7 3 3 8 7 7 14 19 24 35 37 27 29 36 39 45 42 35 32 33 23 19 29 27 24 24 21
15 13 13 18 15 10 3 7 9 9 11 13 16 15 12 10 6 3 1 5 7 9 10 10 10 15 21 23 36 33 29 43 32 33 30 29 25 22 24 22 25 24 24 22
14 13 12 9 11 14 9 9 7 10 10 11 7 8 12 6 3 2 5 6 7 8 8 10 9 6 11 13 16 23 29 38 32 31 28 24 21 24 20 19 22 23 21 21
12 13 18 15 18 13 16 14 10 9 10 10 8 7 5 5 3 1 2 4 6 8 10 12 12 10 7 8 12 12 14 16 22 22 22 19 19 18 22 21 21 20 17 15
12 12 6 8 17 19 16 9 14 15 9 9 6 10 6 8 7 4 2 4 7 10 12 14 13 10 7 2 3 6 10 13 16 16 19 19 21 22 17 19 18 16 15 14
9 4 12 11 7 7 15 6 10 10 17 17 10 8 8 11 8 4 3 5 7 8 11 14 15 16 13 11 9 9 10 11 12 13 12 15 18 18 18 17 17 15 14 13
12 10 8 8 11 10 8 11 11 9 6 10 11 2 11 7 2 3 3 5 6 7 8 11 14 15 15 15 14 15 14 14 14 14 14 14 12 12 13 12 11 11 12 12
5 5 7 11 4 3 5 9 7 8 13 8 9 7 5 4 2 2 4 4 5 4 6 8 9 10 11 11 11 9 9 8 6 8 8 9 8 7 7 8 8 8 10 11
6 6 8 6 12 9 10 11 9 6 4 12 10 4 5 6 3 2 3 4 1 1 2 3 4 6 7 7 7 7 7 6 5 5 5 5 5 6 6 8 9 11 12 15
2 6 6 1 3 2 11 10 13 12 9 12 13 12 11 6 3 4 5 8 10 7 9 9 8 6 5 6 7 5 6 5 5 4 2 1 6 9 11 14 16 17 17 18
1 5 5 1 1 2 2 6 9 10 11 11 11 12 10 10 13 16 19 18 18 18 15 14 9 6 6 5 4 3 2 2 2 3 5 7 8 10 12 15 18 21 24 25
1 4 6 11 4 8 13 14 15 16 15 16 15 16 14 10 12 13 12 14 16 16 10 5 3 6 7 6 5 3 5 2 5 6 7 10 13 16 20 24 27 30 33 36
3 4 5 9 2 6 10 16 18 16 14 11 12 4 8 6 6 5 5 6 5 6 4 3 5 6 6 5 5 5 7 8 10 11 12 14 16 18 20 22 23 26 28 30
3 4 3 2 3 7 6 2 1 4 2 3 2 3 1 3 3 6 8 8 8 6 4 3 3 4 5 5 6 8 10 13 14 15 17 18 20 22 23 25 26 28 30 31
4 4 2 3 4 8 5 3 1 3 2 4 6 2 2 2 4 3 3 5 4 4 4 4 5 6 7 8 10 13 15 17 18 20 21 22 23 25 26 28 29 29 30 31
3 3 3 3 2 3 6 3 1 1 6 7 2 2 4 4 7 4 3 1 4 5 5 6 8 10 12 13 15 17 19 20 21 22 22 23 24 25 27 28 29 29 29 29
4 4 7 5 4 5 6 5 2 5 3 3 3 5 6 6 5 6 7 7 7 7 8 10 13 14 16 17 18 21 21 22 22 23 23 25 25 26 26 26 25 24 26 27
7 7 5 7 6 7 5 5 6 4 2 4 5 4 5 6 8 9 11 12 11 12 14 16 18 19 20 20 20 22 23 22 22 23 24 24 24 23 22 23 25 28 28 31
5 4 3 6 2 4 2 5 4 4 4 4 5 6 8 10 12 12 14 15 17 18 20 20 21 23 21 20 19 22 22 22 23 23 23 23 22 21 23 24 29 29 27 29
5 4 4 3 5 1 3 4 3 3 5 4 6 8 10 13 16 19 21 21 22 22 21 21 21 22 21 19 20 21 21 21 21 22 21 21 25 26 24 22 23 27 27 28
3 4 6 8 6 3 5 5 4 4 4 5 7 10 13 16 19 21 22 22 22 21 20 21 23 24 24 22 20 19 18 19 20 22 25 25 23 23 23 23 23 22 21 20
9 8 5 3 3 3 3 3 3 6 8 9 11 12 12 16 20 21 21 21 22 23 24 25 24 23 22 21 20 18 20 21 22 22 22 22 22 22 21 22 22 19 21 20
Wind_Direction
186 197 207 205 210 240 257 250 249 259 261 273 275 274 287 287 257 243 236 244 231 226 223 224 197 201 223 242 244 216 215 201 208 210 226 259 246 228 236 228 231 224 227 229
176 223 207 210 206 229 239 251 253 267 270 259 265 292 283 267 266 268 233 224 223 214 217 223 236 243 232 220 224 226 224 219 229 268 273 320 289 262 257 263 238 240 254 229
218 204 188 200 197 218 230 248 258 267 268 280 260 268 252 215 233 258 277 256 218 214 223 227 241 233 232 265 256 234 211 221 211 211 252 258 288 283 256 237 236 220 217 218
225 199 192 196 212 216 243 230 248 268 266 260 182 273 144 232 278 208 32 22 7 238 223 234 238 226 212 216 245 244 232 239 243 226 221 219 213 217 244 241 232 228 224 225
207 213 210 211 210 218 254 254 257 254 253 259 244 244 266 163 240 186 173 0 4 347 292 260 250 240 224 235 240 250 242 229 226 235 227 226 222 224 240 232 221 220 228 226
217 209 218 221 215 221 177 240 230 252 251 241 242 243 250 224 222 154 126 1 4 347 331 315 270 243 243 246 242 230 238 254 245 235 232 220 228 215 207 214 212 213 215 219
215 215 216 233 199 199 213 234 227 217 219 242 224 228 245 69 117 328 333 345 4 3 3 352 343 288 250 239 239 238 238 239 238 234 231 221 211 206 205 204 208 216 209 208
214 210 215 209 225 228 210 226 245 235 238 232 143 228 229 101 122 101 18 5 8 18 16 11 6 358 330 273 247 236 228 218 217 212 213 208 198 198 202 208 208 199 194 202
212 215 153 199 217 224 220 226 247 277 269 286 259 168 203 169 165 160 100 65 42 36 29 28 27 35 43 65 236 215 204 201 196 188 185 189 199 206 187 184 183 188 194 204
237 199 213 148 190 205 242 247 207 227 254 245 233 226 272 172 178 152 124 77 64 57 53 50 49 43 57 76 92 116 129 139 162 163 160 165 160 160 173 184 188 196 207 214
215 245 185 188 208 199 183 224 234 293 271 252 260 281 27 62 114 167 125 101 82 73 66 64 61 63 69 78 82 89 98 109 119 128 141 155 160 167 179 188 195 204 216 233
208 204 264 234 40 268 271 278 275 222 246 261 287 271 89 85 86 191 158 143 117 96 70 63 65 62 66 75 79 81 94 110 121 126 138 147 155 169 181 189 207 222 237 245
184 205 223 219 210 213 236 214 252 254 253 237 241 249 108 100 125 165 231 156 209 267 287 329 18 16 24 42 60 84 84 80 89 112 123 134 161 177 204 225 236 243 247 249
255 214 230 276 352 191 212 224 231 239 249 255 250 251 159 162 228 253 256 263 257 270 295 289 284 306 348 27 21 33 67 71 67 72 79 195 240 250 254 256 258 261 262 261
272 252 246 176 297 324 293 222 210 237 253 261 273 286 295 301 297 288 288 281 272 268 270 279 285 282 275 273 317 335 37 38 352 356 348 304 296 286 281 277 276 275 273 271
152 227 268 259 258 270 266 256 252 255 260 266 268 274 271 299 312 297 300 293 275 265 265 276 196 113 105 87 109 54 16 351 313 328 319 310 300 292 287 283 279 276 274 272
207 226 233 256 91 281 262 246 241 249 250 265 259 327 1 331 358 343 1 16 40 77 129 125 104 95 89 73 48 5 336 324 317 314 305 300 297 293 290 287 284 283 281 280
167 194 190 249 224 229 65 46 252 275 243 193 291 303 16 24 40 55 42 65 75 80 94 84 57 52 36 11 346 333 320 317 310 305 300 297 293 290 289 287 284 283 281 279
249 202 210 242 243 320 190 158 221 281 181 212 262 197 256 327 295 154 60 20 21 14 3 355 356 344 329 323 316 314 312 308 304 301 297 294 292 292 292 289 287 284 281 280
174 273 215 175 246 267 85 120 279 278 250 94 292 346 343 258 246 91 55 345 316 315 303 317 316 313 307 305 305 304 303 302 299 296 292 293 293 290 289 287 286 286 284 285
170 187 208 190 238 275 101 153 232 238 81 78 335 324 312 308 338 307 301 298 293 295 292 294 301 299 298 299 299 297 298 296 295 294 295 294 293 292 290 290 289 288 287 285
171 183 192 212 218 248 121 179 242 28 343 338 325 331 308 291 290 295 294 295 295 295 296 297 296 294 294 296 297 295 294 296 296 295 293 293 293 292 289 288 287 289 290 291
214 219 198 204 233 106 191 307 325 319 325 332 323 333 313 303 300 300 298 297 295 296 298 297 296 294 295 295 294 294 295 296 296 295 294 293 293 292 288 289 294 295 295 297
221 208 236 227 186 331 319 308 320 333 327 342 324 313 307 303 301 299 298 297 297 297 297 299 299 296 295 295 295 293 295 295 293 291 293 290 290 297 297 297 297 301 304 304
55 205 245 250 259 307 68 54 15 350 337 326 312 308 304 303 301 301 299 298 297 297 298 299 300 297 296 298 296 295 294 293 292 290 293 300 302 302 302 305 305 307 310 310
220 242 246 302 63 323 344 332 330 320 317 313 310 308 309 314 309 305 299 299 299 296 296 299 297 294 295 295 295 292 292 295 298 299 301 304 306 308 310 314 317 322 324 323